Flag for Mexico Weather past 2 weeks in San Luis Potosi, San Luis Potosí, Mexico

Now
68 °F

Passing clouds.


Feels Like: 68 °F
Forecast: 63 / 75 °F
Wind: No wind

Location: San Luis Potosi - S. L. P.


UV Index: 10 (Very high)

Visibility: 10 mi


Pressure: 30.17 "Hg

Humidity: 73%

Dew point: 59 °F

Location of San Luis PotosiLocation

Historic Weather in San Luis Potosi

°F

San Luis Potosi temperature yesterday

Maximum temperature yesterday: 86 °F (at 5:49 PM)
Minimum temperature yesterday: 54 °F (at 4:40 AM)
Average temperature yesterday: 73 °F

Past Weeks' High & Low Weather Summary

 TemperatureHumidityPressure
High91 °F (Apr 13, 4:46 PM)100% (Apr 20, 9:47 AM)30.51 "Hg (Apr 20, 9:47 AM)
Low39 °F (Apr 16, 4:49 AM)6% (Apr 13, 4:46 PM)29.48 "Hg (Apr 14, 3:50 PM)
Average66 °F48%30.06 "Hg
* Reported Apr 10 12:48 AM — Apr 24 11:47 PM, San Luis Potosi, Weather by CustomWeather, © 2014

Note: Actual official high and low records may vary slightly from our data, if they occured in-between our weather recording intervals... More about our weather records

Advertising

Historic Weather Conditions — Data for Previous 24 hours

 ConditionsComfort  
Time TempWeatherWind HumidityBarometerVisibility
11:47 PM
Apr 24
68 °FPassing clouds.No wind73%30.17 "Hg10 mi
10:46 PM72 °FPassing clouds.9 mph47%30.14 "Hg12 mi
9:45 PM73 °FPassing clouds.8 mph25%29.65 "Hg12 mi
8:46 PM75 °FScattered clouds.6 mph22%30.09 "Hg12 mi
7:50 PM82 °FPartly sunny.No wind11%30.07 "Hg15 mi
5:49 PM86 °FPartly sunny.7 mph11%30.06 "Hg15 mi
4:47 PM84 °FPartly sunny.8 mph13%30.07 "Hg15 mi
3:52 PM84 °FPartly sunny.5 mph13%29.65 "Hg15 mi
2:55 PM82 °FPartly sunny.14 mph10%30.12 "Hg15 mi
1:55 PM82 °FPassing clouds.6 mph11%30.16 "Hg15 mi
12:56 PM81 °FPassing clouds.14 mph13%29.74 "Hg15 mi
10:49 AM73 °FSunny.No wind25%30.24 "Hg15 mi
9:46 AM68 °FSunny.6 mph38%29.79 "Hg15 mi
8:51 AM59 °FSunny.No wind72%30.22 "Hg15 mi
4:40 AM54 °FClear.No wind77%30.13 "Hg10 mi
2:41 AM57 °FClear.5 mph72%30.13 "Hg10 mi
Weather by CustomWeather, © 2014

See weather overview